Volver al catálogo

STARLINK-32406

ActivoComunicacionesVLEO
NORAD 61545·PAYLOAD·🇺🇸 United States

Lanzado Oct 15, 2024 desde Vandenberg Space Force Base

Loading…

Próximos Pases (próximas 24 horas)

TLE

ActualizadoSource: CelesTrak SupGP

Época: Sep 15, 2026, 02:03 UTC

1 61545C 24184P   26258.08590278 -.00051502  00000+0 -15215-2 0  2580
2 61545  53.1592 211.2179 0001463  84.2776  25.6394 15.34419053    14

Sigue STARLINK-32406 en tiempo real con AllMySat

Download on the App Store